QDA532 ZGHA-ZPPP

Flight info

Callsign QDA532
Flight time N/A
Altitude 36100
Route OLT9W OLTUS W226 IPMUG W611 BIVAV W138 DYG W140 HUY A581 QNX W136 XISLI XIS2L
Aircraft A320/M-SDE3FGHIRWY/LB1

Departure

Time 2026-04-26 03:14
Airport Changsha Huanghua International Airport (ZGHA)

Arrival

Time N/A
Airport Kunming Changshui International Airport (ZPPP)
Time Latitude Longitude Altitude Speed Heading
2026-04-26 02:31 28.19205 113.21487 226 ft 0 kts 356°
2026-04-26 03:05 28.19197 113.21488 226 ft 2 kts 347°
2026-04-26 03:05 28.19182 113.21492 226 ft 2 kts 352°
2026-04-26 03:05 28.19167 113.21494 226 ft 2 kts 350°
2026-04-26 03:05 28.19154 113.21497 226 ft 0 kts 351°
2026-04-26 03:06 28.19149 113.21498 226 ft 0 kts 32°
2026-04-26 03:06 28.19146 113.21494 226 ft 0 kts 80°
2026-04-26 03:06 28.19146 113.21487 226 ft 1 kts 87°
2026-04-26 03:06 28.19146 113.21486 226 ft 0 kts 86°
2026-04-26 03:08 28.19146 113.21487 226 ft 1 kts 86°
2026-04-26 03:08 28.19150 113.21564 226 ft 15 kts 86°
2026-04-26 03:08 28.19156 113.21685 226 ft 15 kts 86°
2026-04-26 03:08 28.19210 113.21770 226 ft 15 kts
2026-04-26 03:09 28.19352 113.21762 226 ft 24 kts 357°
2026-04-26 03:09 28.19522 113.21751 226 ft 24 kts 356°
2026-04-26 03:09 28.19694 113.21740 226 ft 24 kts 357°
2026-04-26 03:09 28.19863 113.21729 226 ft 25 kts 356°
2026-04-26 03:10 28.20035 113.21719 226 ft 24 kts 356°
2026-04-26 03:10 28.20206 113.21709 226 ft 23 kts 357°
2026-04-26 03:10 28.20372 113.21699 226 ft 23 kts 356°
2026-04-26 03:10 28.20535 113.21688 226 ft 21 kts 356°
2026-04-26 03:11 28.20604 113.21756 226 ft 6 kts 87°
2026-04-26 03:11 28.20604 113.21759 225 ft 0 kts 88°
2026-04-26 03:12 28.20604 113.21760 225 ft 1 kts 88°
2026-04-26 03:12 28.20600 113.21838 225 ft 14 kts 111°
2026-04-26 03:12 28.20528 113.21877 226 ft 0 kts 177°
2026-04-26 03:13 28.20526 113.21877 226 ft 3 kts 177°
2026-04-26 03:13 28.20233 113.21898 226 ft 79 kts 176°
2026-04-26 03:13 28.19465 113.21944 227 ft 139 kts 178°
2026-04-26 03:14 28.18375 113.22023 348 ft 168 kts 176°
2026-04-26 03:14 28.17148 113.22086 653 ft 187 kts 178°
2026-04-26 03:14 28.15799 113.22165 1035 ft 198 kts 177°
2026-04-26 03:14 28.14412 113.22260 1260 ft 199 kts 176°
2026-04-26 03:15 28.12973 113.22360 1594 ft 219 kts 176°
2026-04-26 03:15 28.11398 113.22463 2353 ft 229 kts 176°
2026-04-26 03:15 28.09877 113.22562 3477 ft 220 kts 177°
2026-04-26 03:15 28.08378 113.22658 4440 ft 218 kts 177°
2026-04-26 03:16 28.06860 113.22751 5263 ft 222 kts 177°
2026-04-26 03:16 28.05326 113.22845 6056 ft 227 kts 177°
2026-04-26 03:16 28.03726 113.22942 6865 ft 232 kts 178°
2026-04-26 03:16 28.02098 113.23044 7621 ft 238 kts 178°
2026-04-26 03:17 28.00421 113.23284 8326 ft 246 kts 159°
2026-04-26 03:17 27.99042 113.24396 9010 ft 251 kts 124°
2026-04-26 03:17 27.98381 113.26176 9695 ft 251 kts 92°
2026-04-26 03:17 27.98356 113.28169 10011 ft 255 kts 85°
2026-04-26 03:18 27.98418 113.30170 10001 ft 254 kts 83°
2026-04-26 03:18 27.98843 113.32083 9993 ft 247 kts 55°
2026-04-26 03:18 28.00007 113.33457 10005 ft 241 kts 27°
2026-04-26 03:18 28.01556 113.34036 10005 ft 236 kts
2026-04-26 03:19 28.03219 113.33993 10005 ft 235 kts 355°
2026-04-26 03:19 28.04857 113.33910 9999 ft 235 kts 355°
2026-04-26 03:19 28.06492 113.33842 9995 ft 236 kts 356°
2026-04-26 03:19 28.08152 113.33776 9996 ft 235 kts 354°
2026-04-26 03:20 28.09708 113.33295 9986 ft 234 kts 327°
2026-04-26 03:20 28.10861 113.32011 9994 ft 235 kts 300°
2026-04-26 03:20 28.11370 113.30241 9995 ft 239 kts 277°
2026-04-26 03:20 28.11482 113.28356 9989 ft 239 kts 276°
2026-04-26 03:21 28.11585 113.26487 9987 ft 240 kts 276°
2026-04-26 03:21 28.11695 113.24605 9982 ft 239 kts 276°
2026-04-26 03:21 28.11810 113.22702 9981 ft 239 kts 276°
2026-04-26 03:21 28.11925 113.20840 9988 ft 241 kts 276°
2026-04-26 03:22 28.12045 113.18910 10321 ft 249 kts 276°
2026-04-26 03:22 28.12165 113.16981 11205 ft 245 kts 276°
2026-04-26 03:22 28.12286 113.15042 11849 ft 254 kts 276°
2026-04-26 03:22 28.12417 113.12982 12268 ft 271 kts 276°
2026-04-26 03:23 28.12555 113.10801 12668 ft 289 kts 276°
2026-04-26 03:23 28.12701 113.08448 13050 ft 307 kts 275°
2026-04-26 03:23 28.12852 113.05977 13419 ft 325 kts 275°
2026-04-26 03:23 28.13010 113.03385 14022 ft 333 kts 275°
2026-04-26 03:24 28.13170 113.00728 14588 ft 342 kts 275°
2026-04-26 03:24 28.13335 112.97998 14932 ft 357 kts 275°
2026-04-26 03:24 28.13506 112.95161 15510 ft 364 kts 275°
2026-04-26 03:24 28.13678 112.92312 16062 ft 370 kts 275°
2026-04-26 03:25 28.13855 112.89333 16319 ft 385 kts 275°
2026-04-26 03:25 28.14035 112.86262 16556 ft 398 kts 275°
2026-04-26 03:25 28.14219 112.83087 16808 ft 410 kts 275°
2026-04-26 03:25 28.14407 112.79816 17265 ft 416 kts 275°
2026-04-26 03:26 28.14596 112.76549 17686 ft 421 kts 274°
2026-04-26 03:26 28.14789 112.73180 18157 ft 425 kts 275°
2026-04-26 03:26 28.14979 112.69839 18670 ft 428 kts 275°
2026-04-26 03:26 28.15168 112.66505 19180 ft 430 kts 275°
2026-04-26 03:27 28.15361 112.63107 19711 ft 432 kts 275°
2026-04-26 03:27 28.15553 112.59695 20216 ft 434 kts 275°
2026-04-26 03:27 28.15746 112.56282 20691 ft 436 kts 275°
2026-04-26 03:27 28.15941 112.52817 21175 ft 439 kts 275°
2026-04-26 03:28 28.16133 112.49386 21663 ft 440 kts 275°
2026-04-26 03:28 28.16323 112.45964 22829 ft 425 kts 275°
2026-04-26 03:28 28.16499 112.42740 24054 ft 410 kts 275°
2026-04-26 03:28 28.16676 112.39512 24479 ft 414 kts 275°
2026-04-26 03:29 28.16861 112.36211 24613 ft 424 kts 275°
2026-04-26 03:29 28.17045 112.32860 24961 ft 428 kts 275°
2026-04-26 03:29 28.17228 112.29481 25577 ft 426 kts 275°
2026-04-26 03:29 28.17408 112.26117 25749 ft 434 kts 275°
2026-04-26 03:30 28.17619 112.22656 25890 ft 441 kts 276°
2026-04-26 03:30 28.17961 112.19205 26012 ft 447 kts 279°
2026-04-26 03:30 28.18378 112.15694 26176 ft 452 kts 279°
2026-04-26 03:30 28.18802 112.12170 26432 ft 454 kts 279°
2026-04-26 03:31 28.19234 112.08594 26829 ft 450 kts 279°
2026-04-26 03:31 28.19647 112.05151 27201 ft 438 kts 279°
2026-04-26 03:31 28.20087 112.01731 27252 ft 441 kts 282°
2026-04-26 03:31 28.20840 111.98365 27457 ft 442 kts 288°
2026-04-26 03:32 28.21959 111.95088 27728 ft 443 kts 295°
2026-04-26 03:32 28.23399 111.92011 27972 ft 445 kts 301°
2026-04-26 03:32 28.25050 111.89056 28382 ft 442 kts 302°
2026-04-26 03:32 28.26713 111.86150 28912 ft 431 kts 302°
2026-04-26 03:33 28.28334 111.83332 28801 ft 426 kts 302°
2026-04-26 03:33 28.29949 111.80515 28531 ft 423 kts 303°
2026-04-26 03:33 28.31543 111.77734 28390 ft 417 kts 303°
2026-04-26 03:33 28.33106 111.75003 28133 ft 415 kts 302°
2026-04-26 03:34 28.34696 111.72225 27808 ft 415 kts 302°
2026-04-26 03:34 28.36253 111.69501 27797 ft 407 kts 302°
2026-04-26 03:34 28.37747 111.66885 28653 ft 382 kts 302°
2026-04-26 03:34 28.39166 111.64397 29496 ft 372 kts 302°
2026-04-26 03:35 28.40553 111.61961 30240 ft 366 kts 302°
2026-04-26 03:35 28.41942 111.59525 30902 ft 363 kts 302°
2026-04-26 03:35 28.43294 111.57152 31496 ft 361 kts 302°
2026-04-26 03:35 28.44664 111.54750 31897 ft 364 kts 302°
2026-04-26 03:36 28.46062 111.52290 32300 ft 366 kts 302°
2026-04-26 03:36 28.47445 111.49860 32696 ft 368 kts 301°
2026-04-26 03:36 28.48838 111.47408 33094 ft 369 kts 301°
2026-04-26 03:36 28.50232 111.44953 33494 ft 370 kts 301°
2026-04-26 03:37 28.51625 111.42501 33939 ft 371 kts 301°
2026-04-26 03:37 28.53025 111.40026 34386 ft 371 kts 301°
2026-04-26 03:37 28.54422 111.37560 34834 ft 370 kts 301°
2026-04-26 03:37 28.55808 111.35112 35282 ft 369 kts 301°
2026-04-26 03:38 28.57206 111.32643 35740 ft 368 kts 301°
2026-04-26 03:38 28.58592 111.30189 36065 ft 369 kts 301°
2026-04-26 03:38 28.61426 111.25177 36065 ft 383 kts 301°
2026-04-26 03:39 28.64347 111.20006 36069 ft 395 kts 301°
2026-04-26 03:39 28.67367 111.14668 36069 ft 406 kts 301°
2026-04-26 03:40 28.70482 111.09219 36074 ft 412 kts 301°
2026-04-26 03:40 28.73587 111.03774 36081 ft 410 kts 301°
2026-04-26 03:41 28.76725 110.98262 36082 ft 411 kts 301°
2026-04-26 03:41 28.79817 110.92828 36080 ft 411 kts 301°
2026-04-26 03:42 28.82930 110.87342 36079 ft 411 kts 301°
2026-04-26 03:42 28.86028 110.81879 36078 ft 405 kts 301°
2026-04-26 03:43 28.89087 110.76474 36080 ft 404 kts 301°
2026-04-26 03:43 28.92126 110.71101 36080 ft 405 kts 301°
2026-04-26 03:44 28.95190 110.65672 36083 ft 406 kts 301°
2026-04-26 03:44 28.98280 110.60188 36089 ft 405 kts 301°
2026-04-26 03:45 29.01336 110.54760 36097 ft 406 kts 301°
2026-04-26 03:45 29.04164 110.49194 36102 ft 404 kts 292°
2026-04-26 03:46 29.05611 110.42952 36106 ft 405 kts 277°
2026-04-26 03:47 29.04785 110.33348 36108 ft 411 kts 255°
2026-04-26 03:47 29.02276 110.27397 36103 ft 418 kts 243°
2026-04-26 03:48 28.99241 110.21673 36104 ft 418 kts 243°
2026-04-26 03:48 28.96206 110.15990 36106 ft 418 kts 242°
2026-04-26 03:49 28.93154 110.10285 36106 ft 417 kts 243°
2026-04-26 03:49 28.90117 110.04613 36112 ft 419 kts 242°
2026-04-26 03:50 28.87050 109.98888 36113 ft 420 kts 242°
2026-04-26 03:50 28.84787 109.94674 36113 ft 419 kts 242°
2026-04-26 03:51 28.81733 109.88992 36100 ft 419 kts 242°
2026-04-26 03:51 28.78671 109.83298 36087 ft 418 kts 242°
2026-04-26 03:52 28.75633 109.77660 36076 ft 418 kts 242°
2026-04-26 03:52 28.72576 109.71995 36067 ft 419 kts 242°
2026-04-26 03:53 28.69522 109.66336 36072 ft 418 kts 242°
2026-04-26 03:53 28.66452 109.60659 36076 ft 419 kts 242°
2026-04-26 03:54 28.63389 109.54995 36087 ft 419 kts 242°
2026-04-26 03:54 28.60318 109.49334 36096 ft 419 kts 242°
2026-04-26 03:55 28.57381 109.43626 36097 ft 417 kts 245°
2026-04-26 03:55 28.54767 109.37717 36093 ft 416 kts 246°
2026-04-26 03:56 28.52159 109.31776 36092 ft 417 kts 246°
2026-04-26 03:56 28.49541 109.25821 36090 ft 417 kts 246°
2026-04-26 03:57 28.46939 109.19904 36088 ft 417 kts 245°
2026-04-26 03:57 28.44340 109.14012 36087 ft 417 kts 245°
2026-04-26 03:58 28.41724 109.08122 36087 ft 417 kts 245°
2026-04-26 03:58 28.39099 109.02219 36090 ft 417 kts 245°
2026-04-26 03:59 28.36464 108.96297 36089 ft 418 kts 245°
2026-04-26 03:59 28.33844 108.90411 36097 ft 418 kts 245°
2026-04-26 04:00 28.31195 108.84469 36095 ft 419 kts 245°
2026-04-26 04:00 28.28568 108.78580 36108 ft 419 kts 245°
2026-04-26 04:01 28.25910 108.72633 36112 ft 419 kts 245°
2026-04-26 04:01 28.23268 108.66728 36115 ft 421 kts 245°
2026-04-26 04:02 28.20602 108.60783 36112 ft 420 kts 245°
2026-04-26 04:02 28.17943 108.54862 36107 ft 421 kts 245°
2026-04-26 04:03 28.15268 108.48914 36101 ft 422 kts 245°
2026-04-26 04:03 28.12585 108.42952 36102 ft 423 kts 245°
2026-04-26 04:04 28.09886 108.36962 36100 ft 430 kts 245°
2026-04-26 04:04 28.07146 108.30895 36101 ft 432 kts 244°
2026-04-26 04:05 28.04395 108.24814 36101 ft 432 kts 244°
2026-04-26 04:05 28.01619 108.18682 36105 ft 433 kts 244°
2026-04-26 04:06 27.98874 108.12633 36100 ft 433 kts 244°
2026-04-26 04:06 27.96102 108.06531 36094 ft 434 kts 244°
2026-04-26 04:07 27.93312 108.00395 36087 ft 434 kts 244°
2026-04-26 04:07 27.90546 107.94325 36092 ft 434 kts 244°
2026-04-26 04:08 27.87764 107.88223 36097 ft 434 kts 245°